Location: Ocean City
(38.3360°N, 75.0850°W)
Time: 20:00:06
(UTC-05:00)

Vanguard 2 - All Passes

Search period start: 21 November 2019 00:00
Search period end: 01 December 2019 00:00
Orbit: 554 x 2937 km, 32.9° (Epoch: 21 November)

Date Brightness Start Highest point End Pass type
(mag) Time Alt. Az. Time Alt. Az. Time Alt. Az.
21 Nov - 03:44:14 10° SSE 03:49:10 12° SE 03:53:37 10° SE visible
21 Nov - 05:47:46 10° SSW 05:59:42 31° SSE 06:07:55 10° E visible
21 Nov - 07:58:16 10° WSW 08:09:39 51° S 08:16:29 10° E daylight
21 Nov - 10:10:15 10° W 10:18:38 54° S 10:23:49 10° ESE daylight
21 Nov - 12:21:46 10° W 12:26:26 25° SSW 12:30:02 10° SSE daylight
22 Nov - 03:57:49 10° S 04:07:10 18° SSE 04:14:50 10° ESE visible
22 Nov - 06:04:46 10° SW 06:17:43 39° SSE 06:26:14 10° E visible
22 Nov - 08:16:11 10° WSW 08:27:37 57° S 08:34:23 10° E daylight
22 Nov - 10:28:24 10° W 10:36:29 50° SSW 10:41:33 10° ESE daylight
22 Nov - 12:40:20 10° WSW 12:44:00 18° SSW 12:47:01 10° S daylight
23 Nov - 04:13:17 10° SSW 04:25:08 25° SSE 04:34:17 10° E visible
23 Nov - 06:22:07 10° SW 06:35:43 46° SSE 06:44:22 10° E visible
23 Nov - 08:34:13 10° WSW 08:45:35 61° S 08:52:16 10° E daylight
23 Nov - 10:46:35 10° W 10:54:16 43° SSW 10:59:12 10° SE daylight
23 Nov - 12:59:43 10° WSW 13:01:30 12° SW 13:03:07 10° SSW daylight
24 Nov - 02:28:24 10° SSE 02:32:20 11° SE 02:36:03 10° SE visible
24 Nov - 04:29:34 10° SSW 04:43:06 32° SSE 04:53:04 10° E visible
24 Nov - 06:39:45 10° WSW 06:53:44 53° SSE 07:02:23 10° E daylight
24 Nov - 08:52:22 10° W 09:03:32 61° S 09:10:06 10° ESE daylight
24 Nov - 11:04:50 10° W 11:11:58 35° SSW 11:16:42 10° SE daylight
25 Nov - 02:40:45 10° S 02:50:12 17° SE 02:58:33 10° ESE visible
25 Nov - 04:46:23 10° SW 05:01:04 39° SSE 05:11:30 10° E visible
25 Nov - 06:57:36 10° WSW 07:11:45 60° S 07:20:20 10° E daylight
25 Nov - 09:10:33 10° W 09:21:27 59° S 09:27:53 10° ESE daylight
25 Nov - 11:23:12 10° W 11:29:34 27° SSW 11:34:00 10° SSE daylight
26 Nov - 02:55:48 10° S 03:08:04 24° SE 03:18:26 10° E visible
26 Nov - 05:03:35 10° SW 05:19:03 47° SSE 05:29:43 10° E visible
26 Nov - 07:15:37 10° WSW 07:29:45 64° S 07:38:15 10° E daylight
26 Nov - 09:28:45 10° W 09:39:18 54° SSW 09:45:36 10° ESE daylight
26 Nov - 11:41:50 10° W 11:47:02 20° SW 11:50:56 10° S daylight
27 Nov - 03:11:48 10° SSW 03:25:55 31° SSE 03:37:28 10° E visible
27 Nov - 05:21:05 10° SW 05:37:04 54° SSE 05:47:48 10° E visible
27 Nov - 07:33:45 10° WSW 07:47:46 66° S 07:56:07 10° E daylight
27 Nov - 09:47:01 10° W 09:57:05 47° SSW 10:03:13 10° SE daylight
27 Nov - 12:01:04 10° WSW 12:04:25 14° SW 12:07:12 10° SSW daylight
28 Nov - 01:24:52 10° SSE 01:33:00 15° SE 01:40:46 10° ESE visible
28 Nov - 03:28:24 10° SSW 03:43:48 38° SSE 03:56:04 10° E visible
28 Nov - 05:38:50 10° WSW 05:55:06 60° SSE 06:05:49 10° E visible
28 Nov - 07:51:57 10° W 08:05:45 66° S 08:13:57 10° ESE daylight
28 Nov - 10:05:20 10° W 10:14:45 39° SSW 10:20:41 10° SE daylight
29 Nov - 01:39:11 10° S 01:50:42 21° SE 02:01:27 10° E visible
29 Nov - 03:45:25 10° SW 04:01:43 46° SSE 04:14:24 10° E visible
29 Nov - 05:56:46 10° WSW 06:13:08 65° S 06:23:46 10° E visible
29 Nov - 08:10:11 10° W 08:23:42 63° SSW 08:31:44 10° ESE daylight
29 Nov - 10:23:46 10° W 10:32:18 31° SW 10:37:56 10° SSE daylight
30 Nov - 01:54:50 10° SSW 02:08:23 28° SE 02:20:53 10° E visible
30 Nov - 04:02:45 10° SW 04:19:40 53° SSE 04:32:34 10° E visible
30 Nov - 06:14:50 10° WSW 06:31:11 69° S 06:41:41 10° E visible
30 Nov - 08:28:27 10° W 08:41:34 57° SSW 08:49:26 10° ESE daylight
30 Nov - 10:42:27 10° W 10:49:42 23° SW 10:54:51 10° S daylight
